Location: Forst
(46.9333°N, 15.4333°E)
Time: 06:28:03
(UTC+00:00)

Cosmos 1238 Rocket - Pass Details

Date: 01 December 2020
Orbit: 376 x 1024 km, 83.0° (Epoch: 18 January)

Event Time Altitude Azimuth Distance (km) Brightness Sun altitude
Rises 17:19:17 0° 353° (N) 2,629 6.3 -21.1°
Reaches altitude 10° 17:21:15 10° 355° (N) 1,822 5.4 -21.5°
Maximum altitude 17:25:15 76° 81° (E) 647 2.9 -22.1°
Drops below altitude 10° 17:30:08 10° 168° (SSE) 2,205 5.8 -23.0°
Sets 17:32:41 0° 170° (S) 3,237 6.7 -23.4°
